When you browse on this site, cookies collect data to enhance your experience and personalize the content and advertising you see.
Visit our Privacy Policy to learn more. By continuing to use the site, you agree to this use of cookies and data.
  • In Hungary
  • List of Countries
  • For 7 days
  • Water Temperature
  • Satellite Maps
  • Weather Map
  • News
  • Weather Widgets
  • user-avatar
    Login

    Hourly Weather Borowna

    Today, 25 May, Saturday

    Time Temperature Precipitation Wind Pressure Humidity
    00:00 +12°C° 0 mm 1 mps 732 mmHg 94%
    01:00 +11°C° 0 mm 1 mps 732 mmHg 94%
    02:00 +11°C° 0 mm 1 mps 732 mmHg 94%
    03:00 +10°C° 0 mm 1 mps 732 mmHg 94%
    04:00 +10°C° 0 mm 1 mps 732 mmHg 94%
    05:00 +12°C° 0 mm 1 mps 732 mmHg 91%
    06:00 +13°C° 0 mm 2 mps 732 mmHg 87%
    07:00 +15°C° 0 mm 2 mps 733 mmHg 84%
    08:00 +16°C° 0 mm 2 mps 733 mmHg 75%
    09:00 +18°C° 0 mm 2 mps 733 mmHg 67%
    10:00 +19°C° 0 mm 3 mps 733 mmHg 58%
    11:00 +20°C° 0 mm 3 mps 733 mmHg 57%
    12:00 +20°C° 0 mm 3 mps 733 mmHg 55%
    13:00 +21°C° 0 mm 3 mps 733 mmHg 53%
    14:00 +21°C° 0 mm 3 mps 732 mmHg 55%
    15:00 +21°C° 0 mm 2 mps 732 mmHg 56%
    16:00 +21°C° 0 mm 2 mps 732 mmHg 57%
    17:00 +20°C° 0 mm 2 mps 732 mmHg 65%
    18:00 +18°C° 0 mm 2 mps 732 mmHg 72%
    19:00 +16°C° 0 mm 1 mps 732 mmHg 80%
    20:00 +15°C° 0 mm 1 mps 732 mmHg 83%
    21:00 +14°C° 0 mm 1 mps 733 mmHg 86%
    22:00 +13°C° 0 mm 1 mps 733 mmHg 89%
    23:00 +13°C° 0 mm 1 mps 733 mmHg 89%

    Tomorrow, 26 May, Sunday

    Time Temperature Precipitation Wind Pressure Humidity
    00:00 +13°C° 0 mm 1 mps 733 mmHg 90%
    01:00 +12°C° 0 mm 1 mps 733 mmHg 91%
    02:00 +12°C° 0 mm 1 mps 733 mmHg 90%
    03:00 +12°C° 0 mm 1 mps 733 mmHg 90%
    04:00 +12°C° 0 mm 1 mps 733 mmHg 89%
    05:00 +14°C° 0 mm 1 mps 733 mmHg 84%
    06:00 +15°C° 0 mm 1 mps 733 mmHg 79%
    07:00 +18°C° 0 mm 1 mps 734 mmHg 74%
    08:00 +20°C° 0 mm 1 mps 733 mmHg 70%
    09:00 +21°C° 0 mm 1 mps 733 mmHg 67%
    10:00 +22°C° 0 mm 1 mps 733 mmHg 63%
    11:00 +21°C° 0.9 mm 2 mps 733 mmHg 68%
    12:00 +21°C° 0.9 mm 2 mps 733 mmHg 73%
    13:00 +20°C° 0.9 mm 2 mps 733 mmHg 78%
    14:00 +20°C° 1.4 mm 2 mps 733 mmHg 79%
    15:00 +20°C° 1.4 mm 2 mps 732 mmHg 79%
    16:00 +21°C° 1.4 mm 2 mps 732 mmHg 80%
    17:00 +20°C° 0.7 mm 1 mps 732 mmHg 82%
    18:00 +19°C° 0.7 mm 1 mps 732 mmHg 85%
    19:00 +18°C° 0.7 mm 1 mps 732 mmHg 87%
    20:00 +16°C° 0.1 mm 1 mps 733 mmHg 88%
    21:00 +16°C° 0.1 mm 1 mps 733 mmHg 89%
    22:00 +15°C° 0.1 mm 1 mps 733 mmHg 90%
    23:00 +14°C° 0 mm 1 mps 733 mmHg 91%

    Day after tomorrow, 27 May, Monday

    Time Temperature Precipitation Wind Pressure Humidity
    00:00 +14°C° 0 mm 2 mps 733 mmHg 91%
    01:00 +14°C° 0 mm 2 mps 733 mmHg 92%
    02:00 +13°C° 0 mm 2 mps 733 mmHg 92%
    03:00 +13°C° 0 mm 2 mps 732 mmHg 92%
    04:00 +13°C° 0 mm 2 mps 732 mmHg 92%
    05:00 +15°C° 0 mm 2 mps 732 mmHg 89%
    06:00 +17°C° 0 mm 2 mps 732 mmHg 85%
    07:00 +19°C° 0 mm 2 mps 733 mmHg 82%
    08:00 +20°C° 0.3 mm 2 mps 733 mmHg 77%
    09:00 +21°C° 0.3 mm 2 mps 732 mmHg 71%
    10:00 +24°C° 0.3 mm 2 mps 732 mmHg 66%
    11:00 +23°C° 0.5 mm 2 mps 732 mmHg 68%
    12:00 +23°C° 0.5 mm 2 mps 732 mmHg 70%
    13:00 +23°C° 0.5 mm 2 mps 732 mmHg 72%
    14:00 +23°C° 0.1 mm 1 mps 732 mmHg 70%
    15:00 +23°C° 0.1 mm 1 mps 732 mmHg 69%
    16:00 +24°C° 0.1 mm 1 mps 732 mmHg 68%
    17:00 +22°C° 0.1 mm 1 mps 731 mmHg 73%
    18:00 +21°C° 0.1 mm 1 mps 731 mmHg 79%
    19:00 +20°C° 0.1 mm 1 mps 731 mmHg 84%
    20:00 +19°C° 0.1 mm 1 mps 731 mmHg 86%
    21:00 +19°C° 0.1 mm 1 mps 731 mmHg 88%
    22:00 +19°C° 0.1 mm 1 mps 731 mmHg 90%
    23:00 +18°C° 0.4 mm 1 mps 730 mmHg 91%

    28 May, Tuesday

    Time Temperature Precipitation Wind Pressure Humidity
    00:00 +18°C° 0.4 mm 1 mps 730 mmHg 93%
    01:00 +18°C° 0.4 mm 1 mps 730 mmHg 94%
    02:00 +18°C° 1.3 mm 1 mps 730 mmHg 95%
    03:00 +18°C° 1.3 mm 1 mps 729 mmHg 95%
    04:00 +16°C° 1.3 mm 2 mps 729 mmHg 96%
    05:00 +17°C° 0.9 mm 2 mps 729 mmHg 94%
    06:00 +18°C° 0.9 mm 2 mps 729 mmHg 93%
    07:00 +19°C° 0.9 mm 2 mps 729 mmHg 91%
    08:00 +20°C° 0 mm 2 mps 728 mmHg 82%
    09:00 +23°C° 0 mm 2 mps 728 mmHg 72%
    10:00 +25°C° 0 mm 2 mps 728 mmHg 63%
    11:00 +25°C° 0.4 mm 2 mps 728 mmHg 61%
    12:00 +26°C° 0.4 mm 1 mps 728 mmHg 59%
    13:00 +26°C° 0.4 mm 1 mps 728 mmHg 57%
    14:00 +26°C° 1.9 mm 1 mps 727 mmHg 63%
    15:00 +25°C° 1.9 mm 1 mps 727 mmHg 69%
    16:00 +24°C° 1.9 mm 1 mps 727 mmHg 76%
    17:00 +23°C° 0.1 mm 1 mps 727 mmHg 79%
    18:00 +20°C° 0.1 mm 0 mps 727 mmHg 82%
    19:00 +18°C° 0.1 mm 0 mps 726 mmHg 86%
    20:00 +19°C° 1.8 mm 1 mps 727 mmHg 88%
    21:00 +18°C° 1.8 mm 1 mps 727 mmHg 91%
    22:00 +16°C° 1.8 mm 2 mps 727 mmHg 94%
    23:00 +16°C° 0.4 mm 2 mps 727 mmHg 94%

    29 May, Wednesday

    Time Temperature Precipitation Wind Pressure Humidity
    00:00 +15°C° 0.4 mm 2 mps 727 mmHg 95%
    01:00 +15°C° 0.4 mm 2 mps 727 mmHg 95%
    02:00 +14°C° 0 mm 2 mps 727 mmHg 96%
    03:00 +14°C° 0 mm 2 mps 728 mmHg 96%
    04:00 +13°C° 0 mm 2 mps 728 mmHg 96%
    05:00 +14°C° 0 mm 2 mps 728 mmHg 94%
    06:00 +16°C° 0 mm 2 mps 729 mmHg 91%
    07:00 +17°C° 0 mm 2 mps 729 mmHg 89%
    08:00 +17°C° 0.1 mm 3 mps 730 mmHg 89%
    09:00 +17°C° 0.1 mm 3 mps 730 mmHg 89%
    10:00 +17°C° 0.1 mm 4 mps 730 mmHg 88%
    11:00 +15°C° 0.2 mm 4 mps 731 mmHg 89%
    12:00 +15°C° 0.2 mm 4 mps 731 mmHg 89%
    13:00 +14°C° 0.2 mm 4 mps 731 mmHg 90%
    14:00 +13°C° 0.1 mm 4 mps 732 mmHg 90%
    15:00 +12°C° 0.1 mm 4 mps 732 mmHg 91%
    16:00 +12°C° 0.1 mm 4 mps 732 mmHg 91%
    17:00 +11°C° 0 mm 3 mps 733 mmHg 91%
    18:00 +11°C° 0 mm 3 mps 734 mmHg 91%
    19:00 +12°C° 0 mm 2 mps 734 mmHg 91%
    20:00 +10°C° 0 mm 2 mps 735 mmHg 92%
    21:00 +10°C° 0 mm 2 mps 735 mmHg 92%
    22:00 +10°C° 0 mm 2 mps 736 mmHg 93%
    23:00 +11°C° 0.1 mm 1 mps 736 mmHg 93%

    30 May, Thursday

    Time Temperature Precipitation Wind Pressure Humidity
    00:00 +11°C° 0.1 mm 1 mps 736 mmHg 94%
    01:00 +10°C° 0.1 mm 1 mps 736 mmHg 95%
    02:00 +10°C° 0.9 mm 1 mps 737 mmHg 95%
    03:00 +10°C° 0.9 mm 1 mps 737 mmHg 96%
    04:00 +10°C° 0.9 mm 1 mps 737 mmHg 97%
    05:00 +10°C° 0.7 mm 1 mps 738 mmHg 96%
    06:00 +10°C° 0.7 mm 1 mps 738 mmHg 95%
    07:00 +10°C° 0.7 mm 1 mps 738 mmHg 94%
    08:00 +11°C° 0.1 mm 1 mps 738 mmHg 89%
    09:00 +12°C° 0.1 mm 1 mps 738 mmHg 84%
    10:00 +13°C° 0.1 mm 2 mps 738 mmHg 80%
    11:00 +14°C° 0 mm 2 mps 738 mmHg 75%
    12:00 +15°C° 0 mm 2 mps 738 mmHg 70%
    13:00 +16°C° 0 mm 3 mps 738 mmHg 65%
    14:00 +16°C° 0 mm 2 mps 737 mmHg 66%
    15:00 +16°C° 0 mm 2 mps 737 mmHg 67%
    16:00 +16°C° 0 mm 2 mps 737 mmHg 67%
    17:00 +15°C° 0 mm 2 mps 736 mmHg 72%
    18:00 +14°C° 0 mm 1 mps 736 mmHg 76%
    19:00 +13°C° 0 mm 1 mps 736 mmHg 81%
    20:00 +13°C° 0 mm 1 mps 736 mmHg 81%
    21:00 +12°C° 0 mm 1 mps 736 mmHg 81%
    22:00 +11°C° 0 mm 0 mps 736 mmHg 82%
    23:00 +11°C° 0 mm 0 mps 735 mmHg 82%
    Show more